Location: Redwood Loop Observatory
(43.9900°N, 124.0900°W)
Time: 19:52:02
(UTC-07:00)

Tiangong 2 - Visible Passes

Search period start: 21 March 2019 00:00
Search period end: 31 March 2019 00:00
Orbit: 379 x 390 km, 42.8° (Epoch: 21 March)

Date Brightness Start Highest point End Pass type
(mag) Time Alt. Az. Time Alt. Az. Time Alt. Az.
21 Mar 4.1 04:48:23 13° ESE 04:48:23 13° ESE 04:48:47 10° ESE visible
21 Mar 2.4 06:20:37 18° WSW 06:22:06 25° SSW 06:24:46 10° SSE visible
22 Mar 2.9 05:24:08 23° SSE 05:24:08 23° SSE 05:25:43 10° SE visible
23 Mar 3.0 06:00:02 16° SSW 06:00:02 16° SSW 06:01:45 10° S visible
29 Mar 3.7 21:24:41 10° SSW 21:25:01 12° SSW 21:25:01 12° SSW visible
30 Mar 3.1 20:26:07 10° S 20:27:51 14° SSE 20:28:55 12° SE visible
30 Mar 4.1 22:01:05 10° WSW 22:01:11 11° WSW 22:01:11 11° WSW visible
